When you browse on this site, cookies collect data to enhance your experience and personalize the content and advertising you see.
Visit our Privacy Policy to learn more. By continuing to use the site, you agree to this use of cookies and data.
  • In United Kingdom
  • List of Countries
  • For 7 days
  • Water Temperature
  • Weather Map
  • Weather Widgets
  • user-avatar
    Login

    Hourly Weather Mamou

    Today, 31 May, Sunday

    Time Temperature Precipitation Wind Pressure Humidity
    00:00 +30°C° 0 mm 1 mps 732 mmHg 58%
    01:00 +30°C° 0 mm 1 mps 733 mmHg 59%
    02:00 +30°C° 0 mm 1 mps 732 mmHg 62%
    03:00 +29°C° 0 mm 1 mps 732 mmHg 65%
    04:00 +29°C° 0 mm 1 mps 732 mmHg 68%
    05:00 +29°C° 0 mm 1 mps 732 mmHg 69%
    06:00 +29°C° 0 mm 2 mps 733 mmHg 70%
    07:00 +30°C° 0 mm 2 mps 734 mmHg 71%
    08:00 +31°C° 0 mm 2 mps 734 mmHg 65%
    09:00 +34°C° 0 mm 2 mps 734 mmHg 59%
    10:00 +35°C° 0 mm 3 mps 734 mmHg 53%
    11:00 +37°C° 0 mm 3 mps 734 mmHg 48%
    12:00 +38°C° 0 mm 2 mps 733 mmHg 43%
    13:00 +39°C° 0 mm 2 mps 733 mmHg 38%
    14:00 +40°C° 0 mm 2 mps 732 mmHg 36%
    15:00 +40°C° 0 mm 2 mps 732 mmHg 35%
    16:00 +40°C° 0 mm 3 mps 731 mmHg 33%
    17:00 +37°C° 4.9 mm 4 mps 731 mmHg 49%
    18:00 +33°C° 4.9 mm 5 mps 732 mmHg 66%
    19:00 +28°C° 4.9 mm 7 mps 732 mmHg 82%
    20:00 +28°C° 0.1 mm 5 mps 732 mmHg 77%
    21:00 +29°C° 0.1 mm 3 mps 733 mmHg 72%
    22:00 +29°C° 0.1 mm 1 mps 733 mmHg 66%
    23:00 +29°C° 0 mm 1 mps 733 mmHg 67%

    Tomorrow, 1 June, Monday

    Time Temperature Precipitation Wind Pressure Humidity
    00:00 +29°C° 0 mm 1 mps 733 mmHg 67%
    01:00 +30°C° 0 mm 1 mps 733 mmHg 68%
    02:00 +29°C° 0 mm 1 mps 733 mmHg 70%
    03:00 +29°C° 0 mm 1 mps 733 mmHg 72%
    04:00 +29°C° 0 mm 1 mps 732 mmHg 74%
    05:00 +29°C° 0 mm 1 mps 733 mmHg 75%
    06:00 +29°C° 0 mm 1 mps 733 mmHg 76%
    07:00 +29°C° 0 mm 1 mps 734 mmHg 76%
    08:00 +31°C° 0 mm 2 mps 734 mmHg 70%
    09:00 +32°C° 0 mm 2 mps 734 mmHg 63%
    10:00 +35°C° 0 mm 2 mps 734 mmHg 57%
    11:00 +36°C° 0 mm 2 mps 734 mmHg 52%
    12:00 +37°C° 0 mm 2 mps 733 mmHg 46%
    13:00 +39°C° 0 mm 2 mps 733 mmHg 41%
    14:00 +39°C° 0 mm 2 mps 732 mmHg 39%
    15:00 +40°C° 0 mm 2 mps 731 mmHg 37%
    16:00 +40°C° 0 mm 2 mps 730 mmHg 35%
    17:00 +37°C° 0.7 mm 2 mps 730 mmHg 46%
    18:00 +33°C° 0.7 mm 1 mps 730 mmHg 57%
    19:00 +31°C° 0.7 mm 1 mps 731 mmHg 67%
    20:00 +31°C° 0 mm 1 mps 731 mmHg 66%
    21:00 +31°C° 0 mm 1 mps 731 mmHg 65%
    22:00 +31°C° 0 mm 1 mps 732 mmHg 64%
    23:00 +31°C° 0 mm 1 mps 732 mmHg 64%

    Day after tomorrow, 2 June, Tuesday

    Time Temperature Precipitation Wind Pressure Humidity
    00:00 +31°C° 0 mm 1 mps 732 mmHg 65%
    01:00 +31°C° 0 mm 1 mps 732 mmHg 66%
    02:00 +31°C° 0 mm 1 mps 732 mmHg 67%
    03:00 +30°C° 0 mm 1 mps 732 mmHg 69%
    04:00 +30°C° 0 mm 1 mps 731 mmHg 71%
    05:00 +30°C° 0 mm 1 mps 732 mmHg 72%
    06:00 +30°C° 0 mm 2 mps 732 mmHg 72%
    07:00 +30°C° 0 mm 2 mps 733 mmHg 73%
    08:00 +31°C° 0 mm 3 mps 733 mmHg 68%
    09:00 +34°C° 0 mm 3 mps 733 mmHg 63%
    10:00 +35°C° 0 mm 4 mps 733 mmHg 57%
    11:00 +36°C° 0 mm 4 mps 733 mmHg 53%
    12:00 +38°C° 0 mm 4 mps 732 mmHg 48%
    13:00 +40°C° 0 mm 4 mps 732 mmHg 43%
    14:00 +40°C° 0 mm 4 mps 731 mmHg 42%
    15:00 +40°C° 0 mm 4 mps 730 mmHg 40%
    16:00 +41°C° 0 mm 4 mps 730 mmHg 38%
    17:00 +36°C° 3.8 mm 6 mps 730 mmHg 51%
    18:00 +32°C° 3.8 mm 8 mps 730 mmHg 63%
    19:00 +27°C° 3.8 mm 10 mps 731 mmHg 76%
    20:00 +27°C° 0.1 mm 7 mps 731 mmHg 71%
    21:00 +28°C° 0.1 mm 4 mps 732 mmHg 66%
    22:00 +29°C° 0.1 mm 1 mps 732 mmHg 61%
    23:00 +29°C° 0 mm 2 mps 732 mmHg 64%

    3 June, Wednesday

    Time Temperature Precipitation Wind Pressure Humidity
    00:00 +29°C° 0 mm 2 mps 732 mmHg 67%
    01:00 +29°C° 0 mm 3 mps 731 mmHg 70%
    02:00 +29°C° 0 mm 2 mps 731 mmHg 74%
    03:00 +29°C° 0 mm 2 mps 731 mmHg 78%
    04:00 +28°C° 0 mm 2 mps 731 mmHg 82%
    05:00 +29°C° 0 mm 2 mps 732 mmHg 80%
    06:00 +29°C° 0 mm 3 mps 732 mmHg 79%
    07:00 +29°C° 0 mm 3 mps 733 mmHg 78%
    08:00 +30°C° 0 mm 3 mps 733 mmHg 72%
    09:00 +33°C° 0 mm 4 mps 733 mmHg 67%
    10:00 +34°C° 0 mm 5 mps 733 mmHg 61%
    11:00 +35°C° 0 mm 4 mps 733 mmHg 55%
    12:00 +37°C° 0 mm 4 mps 732 mmHg 50%
    13:00 +38°C° 0 mm 4 mps 731 mmHg 44%
    14:00 +38°C° 0 mm 4 mps 731 mmHg 43%
    15:00 +38°C° 0 mm 3 mps 730 mmHg 43%
    16:00 +38°C° 0 mm 3 mps 730 mmHg 42%
    17:00 +37°C° 0 mm 3 mps 730 mmHg 48%
    18:00 +35°C° 0 mm 4 mps 730 mmHg 54%
    19:00 +34°C° 0 mm 4 mps 730 mmHg 61%
    20:00 +33°C° 0 mm 3 mps 731 mmHg 63%
    21:00 +32°C° 0 mm 2 mps 732 mmHg 65%
    22:00 +31°C° 0 mm 2 mps 732 mmHg 67%
    23:00 +31°C° 0 mm 3 mps 732 mmHg 67%

    4 June, Thursday

    Time Temperature Precipitation Wind Pressure Humidity
    00:00 +32°C° 0 mm 4 mps 732 mmHg 68%
    01:00 +30°C° 0 mm 5 mps 732 mmHg 68%
    02:00 +30°C° 0 mm 4 mps 732 mmHg 69%
    03:00 +30°C° 0 mm 4 mps 732 mmHg 70%
    04:00 +30°C° 0 mm 3 mps 732 mmHg 71%
    05:00 +29°C° 0 mm 3 mps 732 mmHg 72%
    06:00 +29°C° 0 mm 3 mps 732 mmHg 73%
    07:00 +29°C° 0 mm 3 mps 733 mmHg 74%
    08:00 +31°C° 0 mm 3 mps 733 mmHg 68%
    09:00 +33°C° 0 mm 4 mps 733 mmHg 61%
    10:00 +35°C° 0 mm 5 mps 734 mmHg 55%
    11:00 +36°C° 0 mm 4 mps 733 mmHg 51%
    12:00 +37°C° 0 mm 4 mps 733 mmHg 47%
    13:00 +38°C° 0 mm 4 mps 732 mmHg 43%
    14:00 +40°C° 0 mm 4 mps 731 mmHg 41%
    15:00 +39°C° 0 mm 3 mps 731 mmHg 39%
    16:00 +39°C° 0 mm 2 mps 730 mmHg 37%
    17:00 +38°C° 0 mm 2 mps 731 mmHg 41%
    18:00 +37°C° 0 mm 2 mps 731 mmHg 45%
    19:00 +36°C° 0 mm 2 mps 731 mmHg 49%
    20:00 +35°C° 0 mm 2 mps 731 mmHg 53%
    21:00 +34°C° 0 mm 3 mps 732 mmHg 56%
    22:00 +33°C° 0 mm 3 mps 732 mmHg 60%
    23:00 +33°C° 0 mm 3 mps 732 mmHg 62%

    5 June, Friday

    Time Temperature Precipitation Wind Pressure Humidity
    00:00 +33°C° 0 mm 3 mps 732 mmHg 63%
    01:00 +31°C° 0 mm 3 mps 732 mmHg 65%
    02:00 +31°C° 0 mm 3 mps 732 mmHg 67%
    03:00 +30°C° 0 mm 3 mps 732 mmHg 68%
    04:00 +30°C° 0 mm 2 mps 732 mmHg 70%
    05:00 +30°C° 0 mm 3 mps 732 mmHg 71%
    06:00 +30°C° 0 mm 3 mps 733 mmHg 72%
    07:00 +29°C° 0 mm 3 mps 733 mmHg 73%
    08:00 +32°C° 0 mm 4 mps 734 mmHg 67%
    09:00 +33°C° 0 mm 4 mps 734 mmHg 60%
    10:00 +35°C° 0 mm 5 mps 735 mmHg 54%
    11:00 +36°C° 0 mm 5 mps 734 mmHg 50%
    12:00 +37°C° 0 mm 5 mps 733 mmHg 46%
    13:00 +39°C° 0 mm 5 mps 733 mmHg 41%
    14:00 +40°C° 0 mm 5 mps 732 mmHg 41%
    15:00 +40°C° 0 mm 4 mps 732 mmHg 40%
    16:00 +40°C° 0 mm 4 mps 731 mmHg 40%
    17:00 +38°C° 0 mm 4 mps 731 mmHg 44%
    18:00 +36°C° 0 mm 4 mps 731 mmHg 49%
    19:00 +35°C° 0 mm 4 mps 732 mmHg 53%
    20:00 +34°C° 0 mm 3 mps 732 mmHg 56%
    21:00 +34°C° 0 mm 2 mps 733 mmHg 59%
    22:00 +32°C° 0 mm 1 mps 734 mmHg 62%
    23:00 +32°C° 0.3 mm 2 mps 734 mmHg 64%
    Show more